DateTimeUTC,F1_A11,F1_S11,BsB_S11,BsG_S11,BsR_S11,BbsB_S11,BbsG_S11,BbsR_S11,BaB_A11,BaG_A11,BaR_A11,Tu_S11,T_S11,Uu_S11,U_S11,P_S11,T1_A11
2021-07-16T16:00:00Z,00000200,20000000,,,,,,,-000.20,-000.22,0000.57,19.8,26.1,06.4,04.4,0674.7,31.1
2021-07-16T16:01:00Z,00000200,20000000,,,,,,,0000.31,0000.60,0000.10,19.8,26.1,06.5,04.4,0674.7,31.1
2021-07-16T16:02:00Z,00000200,20000000,,,,,,,-000.02,-000.38,-000.07,19.8,26.2,06.5,04.4,0674.7,31.1
2021-07-16T16:03:00Z,00000200,60000000,,,,,,,0000.05,-000.09,-000.08,19.8,26.2,06.5,04.4,0674.7,31.1
2021-07-16T16:04:00Z,00000200,40000000,0000.82,0000.56,-000.24,0000.36,-000.04,-000.22,0000.16,0000.30,0000.39,19.8,26.0,06.6,04.6,0675.7,31.1
2021-07-16T16:05:00Z,00000200,00000000,-000.57,0000.43,0000.00,0000.39,0000.06,0000.09,-000.16,0000.06,-000.37,19.9,26.0,06.7,04.6,0675.7,31.1
2021-07-16T16:06:00Z,00000200,00000000,0000.30,0000.30,0000.42,0000.27,0000.10,0000.12,0000.23,0000.25,0000.23,19.9,26.0,06.7,04.7,0675.7,31.1
2021-07-16T16:07:00Z,00000200,00000000,0000.08,0000.33,-000.06,0000.16,0000.12,0000.03,0000.21,-000.16,0000.04,19.9,26.0,06.8,04.7,0675.7,31.1
2021-07-16T16:08:00Z,00000200,00000000,-000.07,0000.28,0000.03,0000.61,-000.09,-000.06,-000.20,0000.08,-000.06,19.9,26.0,06.7,04.7,0675.7,31.1
2021-07-16T16:09:00Z,00000200,00000000,0000.53,0000.54,-000.09,0000.20,-000.05,0000.18,-000.02,-000.11,-000.09,19.9,26.0,06.7,04.7,0675.7,31.1
2021-07-16T16:10:00Z,00000200,00000000,0000.96,0000.23,-000.04,0000.09,0000.09,0000.20,0000.26,0000.10,0000.01,19.9,26.0,06.8,04.7,0675.7,31.1
2021-07-16T16:11:00Z,00000200,00000000,0000.30,0000.48,0000.00,0000.86,0000.02,0000.05,0000.29,0000.35,0000.31,19.9,26.0,06.8,04.7,0675.7,31.1
2021-07-16T16:12:00Z,00000200,00000000,0000.39,0000.26,0000.09,-000.17,0000.18,0000.00,-000.15,0000.01,0000.09,19.9,26.0,07.0,04.8,0675.7,31.1
2021-07-16T16:13:00Z,00000200,00000000,0000.28,0000.23,-000.16,-000.02,0000.14,0000.08,-000.23,-000.01,-000.24,19.9,26.0,06.9,04.8,0675.8,31.1
2021-07-16T16:14:00Z,00000200,00000000,0000.40,0000.28,0000.26,0000.43,-000.08,0000.02,0000.28,0000.04,0000.04,19.9,26.0,06.8,04.7,0675.8,31.1
2021-07-16T16:15:00Z,00000200,00000000,0000.41,0000.57,0000.23,0000.13,0000.07,0000.05,-000.08,-000.04,0000.28,19.9,26.0,06.9,04.8,0675.8,31.1
2021-07-16T16:16:00Z,00000200,00000000,0000.39,0000.44,-000.18,0000.56,0000.02,0000.28,0000.15,-000.05,0000.01,19.9,26.0,06.8,04.7,0675.8,31.1
2021-07-16T16:17:00Z,00000200,00000000,0001.12,0000.35,0000.11,0000.66,0000.09,0000.23,0000.11,0000.32,0000.20,19.9,25.9,06.9,04.8,0675.8,31.2
2021-07-16T16:18:00Z,00000200,00000000,0000.09,0000.28,-000.28,0000.09,-000.28,0000.02,-000.15,0000.02,0000.05,19.9,26.0,06.9,04.8,0675.8,31.1
2021-07-16T16:19:00Z,00000200,00000000,-000.57,0000.27,0000.25,0000.03,-000.16,-000.09,0000.23,-000.10,-000.32,19.9,25.9,07.0,04.8,0675.9,31.1
2021-07-16T16:20:00Z,00000200,00000000,0000.66,0000.15,0000.08,0000.40,-000.12,-000.06,0000.11,-000.03,-000.04,19.9,26.0,06.9,04.8,0675.9,31.1
2021-07-16T16:21:00Z,00000200,00000000,0000.80,0000.41,0000.23,0000.06,-000.02,-000.08,-000.09,0000.18,0000.21,19.9,26.0,06.9,04.8,0675.8,31.1
2021-07-16T16:22:00Z,00000200,00000000,0000.88,0000.35,-000.16,-000.12,0000.01,0000.39,0000.18,0000.16,0000.10,19.9,26.0,06.9,04.8,0675.8,31.1
2021-07-16T16:23:00Z,00000200,00000000,-000.84,0000.54,0000.20,0000.02,0000.25,0000.02,0000.14,0000.15,0000.30,19.9,26.0,06.8,04.7,0675.9,31.1
2021-07-16T16:24:00Z,00000200,00000000,0000.29,0000.24,0000.13,-000.13,0000.13,0000.04,-000.10,-000.03,-000.20,19.9,26.0,07.0,04.9,0675.8,31.2
2021-07-16T16:25:00Z,00000200,00000000,0000.50,0000.36,-000.17,0000.35,-000.16,-000.11,0000.01,-000.10,-000.10,19.9,26.0,06.9,04.8,0675.8,31.2
2021-07-16T16:26:00Z,00000200,00000000,0000.72,0000.23,0000.26,-000.14,0000.32,0000.17,0000.23,0000.20,0000.36,19.9,26.0,06.9,04.8,0675.9,31.1
2021-07-16T16:27:00Z,00000200,00000000,0000.21,0000.11,0000.33,-000.04,-000.21,0000.16,-000.18,-000.18,-000.25,19.9,26.0,06.9,04.8,0675.9,31.1
2021-07-16T16:28:00Z,00000200,00000000,-000.30,0000.20,0000.13,0000.24,-000.10,0000.24,0000.30,0000.21,0000.08,19.9,26.0,07.0,04.8,0675.9,31.1
2021-07-16T16:29:00Z,00000200,00000000,0000.33,0000.30,-000.04,0000.24,0000.08,0000.04,-000.33,-000.07,0000.40,19.9,25.9,07.0,04.8,0675.9,31.2
2021-07-16T16:30:00Z,00000200,00000000,0000.64,0000.29,-000.01,0000.01,-000.02,0000.25,0000.49,-000.08,-000.28,19.9,26.0,06.9,04.8,0675.9,31.1
2021-07-16T16:31:00Z,00000200,00000000,0000.20,0000.14,0000.30,0000.19,-000.02,0000.15,0000.02,0000.05,-000.02,19.9,26.0,07.0,04.9,0675.9,31.1
2021-07-16T16:32:00Z,00000200,00000000,-000.02,0000.57,0000.26,-000.26,-000.18,-000.12,-000.28,0000.14,0000.21,19.9,26.0,06.9,04.8,0675.9,31.2
2021-07-16T16:33:00Z,00000200,00000000,0000.10,0000.23,0000.16,-000.01,-000.17,-000.17,0000.17,0000.22,0000.02,19.9,26.0,06.9,04.8,0675.9,31.1
2021-07-16T16:34:00Z,00000200,00000000,0000.85,0000.34,0000.21,-000.37,-000.12,0000.10,0000.18,0000.19,-000.05,19.9,26.0,07.1,04.9,0675.9,31.1
2021-07-16T16:35:00Z,00000200,00000000,0000.49,0000.31,0000.09,0000.06,-000.14,0000.39,-000.03,-000.15,0000.23,19.9,26.0,07.1,04.9,0675.9,31.1
2021-07-16T16:36:00Z,00000200,00000000,0000.55,0000.11,0000.03,0000.50,0000.10,-000.18,0000.31,0000.15,0000.08,19.9,26.0,06.9,04.8,0675.9,31.1
2021-07-16T16:37:00Z,00000200,00000000,0000.44,0000.09,0000.00,-000.26,-000.03,-000.07,0000.04,-000.04,-000.41,19.9,26.0,07.0,04.8,0675.9,31.1
2021-07-16T16:38:00Z,00000200,00000000,0000.21,0000.44,-000.28,0000.62,0000.04,-000.06,-000.11,-000.01,0000.14,19.9,26.0,07.0,04.8,0675.9,31.1
2021-07-16T16:39:00Z,00000200,00000000,0000.88,0000.42,0000.02,0000.34,0000.02,0000.26,0000.00,0000.08,0000.44,19.9,26.0,07.0,04.8,0675.9,31.1
2021-07-16T16:40:00Z,00000200,00000000,0000.27,0000.25,-000.26,0000.11,-000.01,-000.03,-000.02,0000.11,-000.28,19.9,26.0,07.1,04.9,0675.9,31.1
2021-07-16T16:41:00Z,00000200,00000000,0000.01,0000.12,-000.10,-000.05,-000.28,0000.46,0000.10,-000.33,-000.03,19.9,26.0,07.1,04.9,0675.9,31.2
2021-07-16T16:42:00Z,00000200,00000000,-000.44,0000.25,0000.41,0000.04,-000.02,0000.27,0000.22,0000.33,0000.60,19.9,26.0,07.0,04.8,0675.9,31.1
2021-07-16T16:43:00Z,00000200,00000000,0000.38,0000.23,0000.34,-000.25,0000.16,-000.30,-000.03,0000.18,-000.31,19.9,26.0,07.0,04.8,0675.9,31.1
2021-07-16T16:44:00Z,00000200,00000000,-000.13,0000.06,0000.24,0000.29,-000.23,-000.12,-000.05,-000.03,0000.15,19.9,26.0,07.1,04.9,0675.9,31.1
2021-07-16T16:45:00Z,00000200,00000000,0000.53,0000.19,-000.04,-000.03,0000.04,-000.24,0000.11,0000.08,-000.01,19.9,25.9,07.1,04.9,0675.9,31.2
2021-07-16T16:46:00Z,00000200,00000000,0000.11,0000.10,0000.18,0000.32,-000.27,0000.16,0000.43,-000.04,0000.04,19.9,25.9,07.1,04.9,0675.9,31.1
2021-07-16T16:47:00Z,00000200,00000000,0000.48,0000.24,-000.11,0000.11,0000.04,0000.38,0000.11,0000.39,0000.24,19.9,26.0,07.2,05.0,0675.9,31.1
2021-07-16T16:48:00Z,00000200,00000000,-000.24,0000.43,0000.08,-000.03,-000.01,-000.09,0000.05,0000.18,0000.14,19.9,26.0,07.2,05.0,0676.0,31.1
2021-07-16T16:49:00Z,00000200,00000000,-000.40,0000.46,0000.18,-000.16,-000.15,-000.02,-000.18,-000.34,-000.16,19.9,26.0,07.1,04.9,0676.0,31.1
2021-07-16T16:50:00Z,00000200,00000000,0000.55,0000.14,-000.08,0000.25,0000.13,-000.19,-000.10,0000.22,-000.20,19.9,26.0,07.1,04.9,0676.0,31.1
2021-07-16T16:51:00Z,00000200,00000000,0000.53,0000.42,0000.04,0000.37,0000.08,0000.11,0000.28,-000.04,0000.24,19.9,26.0,07.2,05.0,0676.0,31.1
2021-07-16T16:52:00Z,00000200,00000000,-000.42,0000.30,0000.16,0000.21,-000.07,0000.08,-000.09,0000.26,-000.03,19.9,26.0,07.1,04.9,0676.0,31.2
2021-07-16T16:53:00Z,00000200,00000000,0000.52,0000.37,-000.16,-000.37,0000.10,0000.13,0000.39,-000.15,0000.32,19.9,26.0,07.1,04.9,0676.0,31.2
2021-07-16T16:54:00Z,00000200,00000000,0000.80,0000.21,0000.26,0000.47,-000.08,-000.02,-000.29,0000.16,-000.25,19.9,26.0,07.2,05.0,0676.0,31.1
2021-07-16T16:55:00Z,00000200,00000000,0000.62,0000.18,0000.09,0000.09,0000.52,0000.31,-000.00,0000.09,0000.10,19.9,26.0,07.2,05.0,0676.0,31.1
2021-07-16T16:56:00Z,00000200,00000000,-000.25,0000.32,0000.19,-000.09,-000.07,-000.22,0000.08,-000.10,-000.07,19.9,25.9,07.3,05.0,0676.0,31.1
2021-07-16T16:57:00Z,00000200,40000000,,,,,,,-000.27,-000.08,0000.13,19.9,26.0,07.2,05.0,0676.0,31.2
2021-07-16T16:58:00Z,00000200,60000000,,,,,,,0000.34,-000.02,-000.15,19.7,26.0,07.1,04.8,0675.0,31.1
2021-07-16T16:59:00Z,00000200,20000000,,,,,,,-000.11,0000.10,0000.04,19.7,26.2,07.1,04.8,0675.0,31.2
